contact:dominique.lefevre@mio.osupytheas.fr, maurice.libes@osupytheas.fr, didier.mallarino@osupytheas.fr
Project:EMSO http://www.emso-fr.org/EMSO-France
Depth: 2436.0 m
Title:EMSO Ligure Ouest : Data MII capteur MICROCAT
DateTime_Computer,Latitude,Longitude,Temperature,Conductivity,Pressure,DateTime_Instrument
DateTime_Computer,Latitude,Longitude,degC,S m-1,dbar,DateTime_Instrument
2022-02-27T00:02:13Z,42.805,6.029,13.3007,4.60097,2470.497,2022-2-27T02:03:48Z
2022-02-27T00:05:17Z,42.805,6.029,13.3019,4.60087,2470.437,2022-2-27T02:06:51Z
2022-02-27T00:08:20Z,42.805,6.029,13.3004,4.60079,2470.437,2022-2-27T02:09:54Z
2022-02-27T00:11:23Z,42.805,6.029,13.3018,4.60081,2470.497,2022-2-27T02:12:57Z
2022-02-27T00:14:26Z,42.805,6.029,13.3017,4.60077,2470.483,2022-2-27T02:16:00Z
2022-02-27T00:17:29Z,42.805,6.029,13.3019,4.60066,2470.437,2022-2-27T02:19:04Z
2022-02-27T00:20:32Z,42.805,6.029,13.3011,4.60090,2470.483,2022-2-27T02:22:07Z
2022-02-27T00:23:35Z,42.805,6.029,13.3025,4.60081,2470.437,2022-2-27T02:25:10Z
2022-02-27T00:26:38Z,42.805,6.029,13.3024,4.60104,2470.46,2022-2-27T02:28:13Z
2022-02-27T00:29:42Z,42.805,6.029,13.3026,4.60109,2470.497,2022-2-27T02:31:16Z
2022-02-27T00:32:45Z,42.805,6.029,13.3038,4.60080,2470.474,2022-2-27T02:34:19Z
2022-02-27T00:35:48Z,42.805,6.029,13.3041,4.60078,2470.483,2022-2-27T02:37:22Z
2022-02-27T00:38:51Z,42.805,6.029,13.3053,4.60096,2470.507,2022-2-27T02:40:25Z
2022-02-27T00:41:54Z,42.805,6.029,13.3048,4.60131,2470.46,2022-2-27T02:43:29Z
2022-02-27T00:44:57Z,42.805,6.029,13.3041,4.60120,2470.497,2022-2-27T02:46:32Z
2022-02-27T00:48:00Z,42.805,6.029,13.3067,4.60116,2470.497,2022-2-27T02:49:35Z
2022-02-27T00:51:03Z,42.805,6.029,13.3036,4.60157,2470.483,2022-2-27T02:52:38Z
2022-02-27T00:54:07Z,42.805,6.029,13.3059,4.60120,2470.474,2022-2-27T02:55:41Z
2022-02-27T00:57:10Z,42.805,6.029,13.3073,4.60114,2470.52,2022-2-27T02:58:44Z
2022-02-27T01:00:13Z,42.805,6.029,13.3029,4.60125,2470.474,2022-2-27T03:01:47Z
2022-02-27T01:03:16Z,42.805,6.029,13.3048,4.60132,2470.53,2022-2-27T03:04:50Z
2022-02-27T01:06:19Z,42.805,6.029,13.3066,4.60087,2470.507,2022-2-27T03:07:54Z
2022-02-27T01:09:22Z,42.805,6.029,13.3033,4.60103,2470.497,2022-2-27T03:10:57Z
2022-02-27T01:12:25Z,42.805,6.029,13.3006,4.60089,2470.52,2022-2-27T03:14:00Z
2022-02-27T01:15:28Z,42.805,6.029,13.3006,4.60068,2470.507,2022-2-27T03:17:03Z
2022-02-27T01:18:32Z,42.805,6.029,13.3022,4.60132,2470.52,2022-2-27T03:20:06Z
2022-02-27T01:21:35Z,42.805,6.029,13.3036,4.60104,2470.544,2022-2-27T03:23:09Z
2022-02-27T01:24:38Z,42.805,6.029,13.3042,4.60139,2470.497,2022-2-27T03:26:12Z
2022-02-27T01:27:41Z,42.805,6.029,13.3039,4.60135,2470.52,2022-2-27T03:29:15Z
2022-02-27T01:30:44Z,42.805,6.029,13.3051,4.60081,2470.544,2022-2-27T03:32:19Z
2022-02-27T01:33:47Z,42.805,6.029,13.3067,4.60087,2470.544,2022-2-27T03:35:22Z
2022-02-27T01:36:50Z,42.805,6.029,13.3036,4.60120,2470.53,2022-2-27T03:38:25Z
2022-02-27T01:39:53Z,42.805,6.029,13.3029,4.60088,2470.507,2022-2-27T03:41:28Z
2022-02-27T01:42:57Z,42.805,6.029,13.3039,4.60087,2470.53,2022-2-27T03:44:31Z
2022-02-27T01:46:00Z,42.805,6.029,13.3015,4.60119,2470.53,2022-2-27T03:47:34Z
2022-02-27T01:49:03Z,42.805,6.029,13.3043,4.60112,2470.553,2022-2-27T03:50:37Z
2022-02-27T01:52:06Z,42.805,6.029,13.3059,4.60108,2470.567,2022-2-27T03:53:40Z
2022-02-27T01:55:09Z,42.805,6.029,13.3069,4.60104,2470.553,2022-2-27T03:56:44Z
2022-02-27T01:58:12Z,42.805,6.029,13.3034,4.60098,2470.553,2022-2-27T03:59:47Z
2022-02-27T02:01:15Z,42.805,6.029,13.3062,4.60084,2470.544,2022-2-27T04:02:50Z
2022-02-27T02:04:18Z,42.805,6.029,13.3053,4.60123,2470.553,2022-2-27T04:05:53Z
2022-02-27T02:07:22Z,42.805,6.029,13.3100,4.60102,2470.553,2022-2-27T04:08:56Z
2022-02-27T02:10:25Z,42.805,6.029,13.3045,4.60110,2470.544,2022-2-27T04:11:59Z
2022-02-27T02:13:28Z,42.805,6.029,13.3054,4.60078,2470.591,2022-2-27T04:15:02Z
2022-02-27T02:16:31Z,42.805,6.029,13.3048,4.60153,2470.567,2022-2-27T04:18:05Z
2022-02-27T02:19:34Z,42.805,6.029,13.3056,4.60152,2470.544,2022-2-27T04:21:08Z
2022-02-27T02:22:37Z,42.805,6.029,13.3036,4.60092,2470.577,2022-2-27T04:24:12Z
2022-02-27T02:25:40Z,42.805,6.029,13.3034,4.60103,2470.553,2022-2-27T04:27:15Z
2022-02-27T02:28:43Z,42.805,6.029,13.3048,4.60065,2470.577,2022-2-27T04:30:18Z
2022-02-27T02:31:47Z,42.805,6.029,13.3054,4.60091,2470.567,2022-2-27T04:33:21Z
2022-02-27T02:34:50Z,42.805,6.029,13.3054,4.60079,2470.577,2022-2-27T04:36:24Z
2022-02-27T02:37:53Z,42.805,6.029,13.3032,4.60049,2470.577,2022-2-27T04:39:27Z
2022-02-27T02:40:56Z,42.805,6.029,13.3034,4.60044,2470.567,2022-2-27T04:42:30Z
2022-02-27T02:43:59Z,42.805,6.029,13.3048,4.60064,2470.614,2022-2-27T04:45:33Z
2022-02-27T02:47:02Z,42.805,6.029,13.3034,4.60064,2470.624,2022-2-27T04:48:37Z
2022-02-27T02:50:05Z,42.805,6.029,13.3019,4.60086,2470.637,2022-2-27T04:51:40Z
2022-02-27T02:53:08Z,42.805,6.029,13.3089,4.60081,2470.6,2022-2-27T04:54:43Z
2022-02-27T02:56:11Z,42.805,6.029,13.3095,4.60094,2470.6,2022-2-27T04:57:46Z
2022-02-27T02:59:15Z,42.805,6.029,13.3056,4.60089,2470.591,2022-2-27T05:00:49Z
2022-02-27T03:02:18Z,42.805,6.029,13.3056,4.60075,2470.614,2022-2-27T05:03:52Z
2022-02-27T03:05:21Z,42.805,6.029,13.3050,4.60059,2470.6,2022-2-27T05:06:55Z
2022-02-27T03:08:24Z,42.805,6.029,13.3029,4.60069,2470.614,2022-2-27T05:09:58Z
2022-02-27T03:11:27Z,42.805,6.029,13.3028,4.60081,2470.614,2022-2-27T05:13:02Z
2022-02-27T03:14:30Z,42.805,6.029,13.3026,4.60049,2470.6,2022-2-27T05:16:05Z
2022-02-27T03:17:33Z,42.805,6.029,13.3038,4.60059,2470.637,2022-2-27T05:19:08Z
2022-02-27T03:20:36Z,42.805,6.029,13.3037,4.60088,2470.614,2022-2-27T05:22:11Z
2022-02-27T03:23:40Z,42.805,6.029,13.3038,4.60059,2470.624,2022-2-27T05:25:14Z
2022-02-27T03:26:43Z,42.805,6.029,13.3048,4.60069,2470.614,2022-2-27T05:28:17Z
2022-02-27T03:29:46Z,42.805,6.029,13.3054,4.60073,2470.661,2022-2-27T05:31:20Z
2022-02-27T03:32:49Z,42.805,6.029,13.3081,4.60064,2470.637,2022-2-27T05:34:23Z
2022-02-27T03:35:52Z,42.805,6.029,13.3070,4.60079,2470.661,2022-2-27T05:37:27Z
2022-02-27T03:38:55Z,42.805,6.029,13.3067,4.60079,2470.614,2022-2-27T05:40:30Z
2022-02-27T03:41:58Z,42.805,6.029,13.3053,4.60059,2470.624,2022-2-27T05:43:33Z
2022-02-27T03:45:01Z,42.805,6.029,13.3058,4.60068,2470.624,2022-2-27T05:46:36Z
2022-02-27T03:48:05Z,42.805,6.029,13.3086,4.60073,2470.661,2022-2-27T05:49:39Z
2022-02-27T03:51:08Z,42.805,6.029,13.3034,4.60087,2470.624,2022-2-27T05:52:42Z
2022-02-27T03:54:11Z,42.805,6.029,13.3054,4.60059,2470.67,2022-2-27T05:55:45Z
2022-02-27T03:57:14Z,42.805,6.029,13.3033,4.60072,2470.67,2022-2-27T05:58:48Z
2022-02-27T04:00:17Z,42.805,6.029,13.3043,4.60106,2470.646,2022-2-27T06:01:52Z
2022-02-27T04:03:20Z,42.805,6.029,13.3068,4.60104,2470.637,2022-2-27T06:04:55Z
2022-02-27T04:06:23Z,42.805,6.029,13.3077,4.60074,2470.661,2022-2-27T06:07:58Z
2022-02-27T04:09:26Z,42.805,6.029,13.3069,4.60067,2470.637,2022-2-27T06:11:01Z
2022-02-27T04:12:30Z,42.805,6.029,13.3081,4.60072,2470.637,2022-2-27T06:14:04Z
2022-02-27T04:15:33Z,42.805,6.029,13.3067,4.60087,2470.646,2022-2-27T06:17:07Z
2022-02-27T04:18:36Z,42.805,6.029,13.3067,4.60076,2470.661,2022-2-27T06:20:10Z
2022-02-27T04:21:39Z,42.805,6.029,13.3070,4.60081,2470.661,2022-2-27T06:23:13Z
2022-02-27T04:24:42Z,42.805,6.029,13.3075,4.60094,2470.661,2022-2-27T06:26:17Z
2022-02-27T04:27:45Z,42.805,6.029,13.3069,4.60085,2470.637,2022-2-27T06:29:20Z
2022-02-27T04:30:48Z,42.805,6.029,13.3085,4.60110,2470.661,2022-2-27T06:32:23Z
2022-02-27T04:33:51Z,42.805,6.029,13.3085,4.60112,2470.624,2022-2-27T06:35:26Z
2022-02-27T04:36:55Z,42.805,6.029,13.3087,4.60089,2470.684,2022-2-27T06:38:29Z
2022-02-27T04:39:58Z,42.805,6.029,13.3093,4.60084,2470.637,2022-2-27T06:41:32Z
2022-02-27T04:43:01Z,42.805,6.029,13.3098,4.60084,2470.67,2022-2-27T06:44:35Z
2022-02-27T04:46:04Z,42.805,6.029,13.3092,4.60095,2470.698,2022-2-27T06:47:38Z
2022-02-27T04:49:07Z,42.805,6.029,13.3090,4.60079,2470.637,2022-2-27T06:50:42Z
2022-02-27T04:52:10Z,42.805,6.029,13.3046,4.60079,2470.614,2022-2-27T06:53:45Z
2022-02-27T04:55:13Z,42.805,6.029,13.3061,4.60074,2470.637,2022-2-27T06:56:48Z
2022-02-27T04:58:16Z,42.805,6.029,13.3056,4.60095,2470.67,2022-2-27T06:59:51Z
2022-02-27T05:01:20Z,42.805,6.029,13.3021,4.60089,2470.661,2022-2-27T07:02:54Z
2022-02-27T05:04:23Z,42.805,6.029,13.3014,4.60082,2470.684,2022-2-27T07:05:57Z
2022-02-27T05:07:26Z,42.805,6.029,13.3009,4.60055,2470.684,2022-2-27T07:09:00Z
2022-02-27T05:10:29Z,42.805,6.029,13.3010,4.60045,2470.693,2022-2-27T07:12:03Z
2022-02-27T05:13:32Z,42.805,6.029,13.3000,4.60039,2470.67,2022-2-27T07:15:07Z
2022-02-27T05:16:35Z,42.805,6.029,13.3006,4.60039,2470.661,2022-2-27T07:18:10Z
2022-02-27T05:19:38Z,42.805,6.029,13.3000,4.60036,2470.646,2022-2-27T07:21:13Z
2022-02-27T05:22:41Z,42.805,6.029,13.3003,4.60032,2470.67,2022-2-27T07:24:16Z
2022-02-27T05:25:45Z,42.805,6.029,13.2996,4.60033,2470.661,2022-2-27T07:27:19Z
2022-02-27T05:28:48Z,42.805,6.029,13.3000,4.60037,2470.661,2022-2-27T07:30:22Z
2022-02-27T05:31:51Z,42.805,6.029,13.3004,4.60036,2470.646,2022-2-27T07:33:25Z
2022-02-27T05:34:54Z,42.805,6.029,13.2997,4.60033,2470.646,2022-2-27T07:36:28Z
2022-02-27T05:37:57Z,42.805,6.029,13.3000,4.60033,2470.646,2022-2-27T07:39:32Z
2022-02-27T05:41:00Z,42.805,6.029,13.2998,4.60032,2470.661,2022-2-27T07:42:35Z
2022-02-27T05:44:03Z,42.805,6.029,13.3000,4.60033,2470.693,2022-2-27T07:45:38Z
2022-02-27T05:47:06Z,42.805,6.029,13.3000,4.60032,2470.661,2022-2-27T07:48:41Z
2022-02-27T05:50:09Z,42.805,6.029,13.3000,4.60030,2470.624,2022-2-27T07:51:44Z
2022-02-27T05:53:13Z,42.805,6.029,13.2996,4.60029,2470.646,2022-2-27T07:54:47Z
2022-02-27T05:56:16Z,42.805,6.029,13.2999,4.60031,2470.684,2022-2-27T07:57:50Z
2022-02-27T05:59:19Z,42.805,6.029,13.3000,4.60032,2470.661,2022-2-27T08:00:53Z
2022-02-27T06:02:22Z,42.805,6.029,13.2998,4.60031,2470.67,2022-2-27T08:03:57Z
2022-02-27T06:05:25Z,42.805,6.029,13.2995,4.60034,2470.624,2022-2-27T08:07:00Z
2022-02-27T06:08:28Z,42.805,6.029,13.2997,4.60031,2470.646,2022-2-27T08:10:03Z
2022-02-27T06:11:31Z,42.805,6.029,13.2994,4.60029,2470.646,2022-2-27T08:13:06Z
2022-02-27T06:14:34Z,42.805,6.029,13.2996,4.60029,2470.684,2022-2-27T08:16:09Z
2022-02-27T06:17:38Z,42.805,6.029,13.2996,4.60036,2470.646,2022-2-27T08:19:12Z
2022-02-27T06:20:41Z,42.805,6.029,13.2997,4.60035,2470.646,2022-2-27T08:22:15Z
2022-02-27T06:23:44Z,42.805,6.029,13.2999,4.60032,2470.661,2022-2-27T08:25:18Z
2022-02-27T06:26:47Z,42.805,6.029,13.2996,4.60029,2470.646,2022-2-27T08:28:21Z
2022-02-27T06:29:50Z,42.805,6.029,13.2995,4.60031,2470.661,2022-2-27T08:31:25Z
2022-02-27T06:32:53Z,42.805,6.029,13.2998,4.60030,2470.67,2022-2-27T08:34:28Z
2022-02-27T06:35:56Z,42.805,6.029,13.2998,4.60032,2470.624,2022-2-27T08:37:31Z
2022-02-27T06:38:59Z,42.805,6.029,13.2996,4.60031,2470.67,2022-2-27T08:40:34Z
2022-02-27T06:42:03Z,42.805,6.029,13.2998,4.60030,2470.661,2022-2-27T08:43:37Z
2022-02-27T06:45:06Z,42.805,6.029,13.2997,4.60029,2470.61,2022-2-27T08:46:40Z
2022-02-27T06:48:09Z,42.805,6.029,13.2998,4.60038,2470.661,2022-2-27T08:49:43Z
2022-02-27T06:51:12Z,42.805,6.029,13.2998,4.60033,2470.6,2022-2-27T08:52:47Z
2022-02-27T06:54:15Z,42.805,6.029,13.2996,4.60031,2470.646,2022-2-27T08:55:50Z
2022-02-27T06:57:18Z,42.805,6.029,13.2996,4.60029,2470.646,2022-2-27T08:58:53Z
2022-02-27T07:00:21Z,42.805,6.029,13.2998,4.60032,2470.624,2022-2-27T09:01:56Z
2022-02-27T07:03:24Z,42.805,6.029,13.2996,4.60031,2470.646,2022-2-27T09:04:59Z
2022-02-27T07:06:28Z,42.805,6.029,13.2996,4.60031,2470.624,2022-2-27T09:08:02Z
2022-02-27T07:09:31Z,42.805,6.029,13.2998,4.60031,2470.6,2022-2-27T09:11:05Z
2022-02-27T07:12:34Z,42.805,6.029,13.2996,4.60031,2470.637,2022-2-27T09:14:08Z
2022-02-27T07:15:37Z,42.805,6.029,13.2996,4.60031,2470.624,2022-2-27T09:17:11Z
2022-02-27T07:18:40Z,42.805,6.029,13.3000,4.60031,2470.637,2022-2-27T09:20:15Z
2022-02-27T07:21:43Z,42.805,6.029,13.2997,4.60031,2470.637,2022-2-27T09:23:18Z
2022-02-27T07:24:46Z,42.805,6.029,13.2998,4.60034,2470.684,2022-2-27T09:26:21Z
2022-02-27T07:27:49Z,42.805,6.029,13.2999,4.60032,2470.6,2022-2-27T09:29:24Z
2022-02-27T07:30:53Z,42.805,6.029,13.2999,4.60031,2470.624,2022-2-27T09:32:27Z
2022-02-27T07:33:56Z,42.805,6.029,13.3002,4.60031,2470.637,2022-2-27T09:35:30Z
2022-02-27T07:36:59Z,42.805,6.029,13.2998,4.60036,2470.637,2022-2-27T09:38:33Z
2022-02-27T07:40:02Z,42.805,6.029,13.2996,4.60032,2470.637,2022-2-27T09:41:37Z
2022-02-27T07:43:05Z,42.805,6.029,13.2993,4.60029,2470.614,2022-2-27T09:44:40Z
2022-02-27T07:46:08Z,42.805,6.029,13.2997,4.60029,2470.624,2022-2-27T09:47:43Z
2022-02-27T07:49:11Z,42.805,6.029,13.2994,4.60031,2470.637,2022-2-27T09:50:46Z
2022-02-27T07:52:14Z,42.805,6.029,13.2996,4.60029,2470.624,2022-2-27T09:53:49Z
2022-02-27T07:55:18Z,42.805,6.029,13.2998,4.60033,2470.624,2022-2-27T09:56:52Z
2022-02-27T07:58:21Z,42.805,6.029,13.3002,4.60032,2470.6,2022-2-27T09:59:55Z
2022-02-27T08:01:24Z,42.805,6.029,13.2996,4.60031,2470.614,2022-2-27T10:02:58Z
2022-02-27T08:04:27Z,42.805,6.029,13.3001,4.60031,2470.6,2022-2-27T10:06:01Z
2022-02-27T08:07:30Z,42.805,6.029,13.2994,4.60030,2470.646,2022-2-27T10:09:05Z
2022-02-27T08:10:33Z,42.805,6.029,13.2998,4.60029,2470.624,2022-2-27T10:12:08Z
2022-02-27T08:13:36Z,42.805,6.029,13.2998,4.60031,2470.624,2022-2-27T10:15:11Z
2022-02-27T08:16:39Z,42.805,6.029,13.2998,4.60029,2470.637,2022-2-27T10:18:14Z
2022-02-27T08:19:43Z,42.805,6.029,13.3000,4.60031,2470.661,2022-2-27T10:21:17Z
2022-02-27T08:22:46Z,42.805,6.029,13.2998,4.60031,2470.624,2022-2-27T10:24:20Z
2022-02-27T08:25:49Z,42.805,6.029,13.3000,4.60033,2470.624,2022-2-27T10:27:23Z
2022-02-27T08:28:52Z,42.805,6.029,13.2997,4.60031,2470.6,2022-2-27T10:30:27Z
2022-02-27T08:31:55Z,42.805,6.029,13.2998,4.60031,2470.577,2022-2-27T10:33:30Z
2022-02-27T08:34:58Z,42.805,6.029,13.3000,4.60033,2470.661,2022-2-27T10:36:33Z
2022-02-27T08:38:01Z,42.805,6.029,13.2998,4.60036,2470.624,2022-2-27T10:39:36Z
2022-02-27T08:41:05Z,42.805,6.029,13.3021,4.60039,2470.624,2022-2-27T10:42:39Z
2022-02-27T08:44:08Z,42.805,6.029,13.2998,4.60031,2470.591,2022-2-27T10:45:42Z
2022-02-27T08:47:11Z,42.805,6.029,13.3005,4.60040,2470.577,2022-2-27T10:48:45Z
2022-02-27T08:50:14Z,42.805,6.029,13.2998,4.60029,2470.614,2022-2-27T10:51:48Z
2022-02-27T08:53:17Z,42.805,6.029,13.2997,4.60028,2470.586,2022-2-27T10:54:52Z
2022-02-27T08:56:20Z,42.805,6.029,13.3001,4.60030,2470.591,2022-2-27T10:57:55Z
2022-02-27T08:59:23Z,42.805,6.029,13.2997,4.60031,2470.637,2022-2-27T11:00:58Z
2022-02-27T09:02:26Z,42.805,6.029,13.2999,4.60031,2470.6,2022-2-27T11:04:01Z
2022-02-27T09:05:30Z,42.805,6.029,13.3005,4.60031,2470.6,2022-2-27T11:07:04Z
2022-02-27T09:08:33Z,42.805,6.029,13.3004,4.60031,2470.6,2022-2-27T11:10:07Z
2022-02-27T09:11:36Z,42.805,6.029,13.3010,4.60031,2470.591,2022-2-27T11:13:10Z
2022-02-27T09:14:39Z,42.805,6.029,13.3004,4.60033,2470.624,2022-2-27T11:16:13Z
2022-02-27T09:17:42Z,42.805,6.029,13.2997,4.60029,2470.6,2022-2-27T11:19:17Z
2022-02-27T09:20:45Z,42.805,6.029,13.3003,4.60031,2470.577,2022-2-27T11:22:20Z
2022-02-27T09:23:48Z,42.805,6.029,13.3006,4.60039,2470.614,2022-2-27T11:25:23Z
2022-02-27T09:26:51Z,42.805,6.029,13.3004,4.60032,2470.577,2022-2-27T11:28:26Z
2022-02-27T09:29:55Z,42.805,6.029,13.3019,4.60039,2470.591,2022-2-27T11:31:29Z
2022-02-27T09:32:58Z,42.805,6.029,13.2998,4.60030,2470.6,2022-2-27T11:34:32Z
2022-02-27T09:36:01Z,42.805,6.029,13.2997,4.60030,2470.553,2022-2-27T11:37:35Z
2022-02-27T09:39:04Z,42.805,6.029,13.3000,4.60029,2470.553,2022-2-27T11:40:38Z
2022-02-27T09:42:07Z,42.805,6.029,13.3005,4.60032,2470.591,2022-2-27T11:43:42Z
2022-02-27T09:45:10Z,42.805,6.029,13.3001,4.60029,2470.577,2022-2-27T11:46:45Z
2022-02-27T09:48:13Z,42.805,6.029,13.3029,4.60053,2470.553,2022-2-27T11:49:48Z
2022-02-27T09:51:16Z,42.805,6.029,13.3022,4.60041,2470.577,2022-2-27T11:52:51Z
2022-02-27T09:54:20Z,42.805,6.029,13.3024,4.60051,2470.553,2022-2-27T11:55:54Z
2022-02-27T09:57:23Z,42.805,6.029,13.3011,4.60041,2470.553,2022-2-27T11:58:57Z
2022-02-27T10:00:26Z,42.805,6.029,13.3019,4.60054,2470.567,2022-2-27T12:02:00Z
2022-02-27T10:03:29Z,42.805,6.029,13.3015,4.60046,2470.53,2022-2-27T12:05:03Z
2022-02-27T10:06:32Z,42.805,6.029,13.3025,4.60067,2470.544,2022-2-27T12:08:07Z
2022-02-27T10:09:35Z,42.805,6.029,13.3036,4.60074,2470.53,2022-2-27T12:11:10Z
2022-02-27T10:12:38Z,42.805,6.029,13.3026,4.60065,2470.507,2022-2-27T12:14:13Z
2022-02-27T10:15:41Z,42.805,6.029,13.3009,4.60052,2470.553,2022-2-27T12:17:16Z
2022-02-27T10:18:45Z,42.805,6.029,13.3014,4.60054,2470.567,2022-2-27T12:20:19Z
2022-02-27T10:21:48Z,42.805,6.029,13.3021,4.60066,2470.507,2022-2-27T12:23:22Z
2022-02-27T10:24:51Z,42.805,6.029,13.3017,4.60063,2470.53,2022-2-27T12:26:25Z
2022-02-27T10:27:54Z,42.805,6.029,13.3009,4.60072,2470.544,2022-2-27T12:29:29Z
2022-02-27T10:30:57Z,42.805,6.029,13.3022,4.60093,2470.53,2022-2-27T12:32:32Z
2022-02-27T10:34:00Z,42.805,6.029,13.3012,4.60069,2470.53,2022-2-27T12:35:35Z
2022-02-27T10:37:03Z,42.805,6.029,13.3014,4.60089,2470.52,2022-2-27T12:38:38Z
2022-02-27T10:40:06Z,42.805,6.029,13.3026,4.60059,2470.53,2022-2-27T12:41:41Z
2022-02-27T10:43:10Z,42.805,6.029,13.3006,4.60079,2470.544,2022-2-27T12:44:44Z
2022-02-27T10:46:13Z,42.805,6.029,13.3013,4.60086,2470.544,2022-2-27T12:47:47Z
2022-02-27T10:49:16Z,42.805,6.029,13.3009,4.60056,2470.544,2022-2-27T12:50:50Z
2022-02-27T10:52:19Z,42.805,6.029,13.3016,4.60059,2470.507,2022-2-27T12:53:54Z
2022-02-27T10:55:22Z,42.805,6.029,13.3016,4.60081,2470.507,2022-2-27T12:56:57Z
2022-02-27T10:58:25Z,42.805,6.029,13.3011,4.60073,2470.53,2022-2-27T13:00:00Z
2022-02-27T11:01:28Z,42.805,6.029,13.3016,4.60066,2470.52,2022-2-27T13:03:03Z
2022-02-27T11:04:31Z,42.805,6.029,13.3010,4.60074,2470.507,2022-2-27T13:06:06Z
2022-02-27T11:07:35Z,42.805,6.029,13.3009,4.60083,2470.507,2022-2-27T13:09:09Z
2022-02-27T11:10:38Z,42.805,6.029,13.3010,4.60068,2470.53,2022-2-27T13:12:12Z
2022-02-27T11:13:41Z,42.805,6.029,13.3006,4.60065,2470.544,2022-2-27T13:15:15Z
2022-02-27T11:16:44Z,42.805,6.029,13.3006,4.60069,2470.53,2022-2-27T13:18:19Z
2022-02-27T11:19:47Z,42.805,6.029,13.3015,4.60094,2470.497,2022-2-27T13:21:22Z
2022-02-27T11:22:50Z,42.805,6.029,13.3019,4.60092,2470.53,2022-2-27T13:24:25Z
2022-02-27T11:25:53Z,42.805,6.029,13.3015,4.60091,2470.507,2022-2-27T13:27:28Z
2022-02-27T11:28:56Z,42.805,6.029,13.3022,4.60078,2470.497,2022-2-27T13:30:31Z
2022-02-27T11:32:00Z,42.805,6.029,13.3021,4.60072,2470.544,2022-2-27T13:33:34Z
2022-02-27T11:35:03Z,42.805,6.029,13.3006,4.60098,2470.497,2022-2-27T13:36:37Z
2022-02-27T11:38:06Z,42.805,6.029,13.3013,4.60094,2470.52,2022-2-27T13:39:40Z
2022-02-27T11:41:09Z,42.805,6.029,13.3012,4.60074,2470.483,2022-2-27T13:42:44Z
2022-02-27T11:44:12Z,42.805,6.029,13.3012,4.60070,2470.53,2022-2-27T13:45:47Z
2022-02-27T11:47:15Z,42.805,6.029,13.3007,4.60084,2470.507,2022-2-27T13:48:50Z
2022-02-27T11:50:18Z,42.805,6.029,13.3015,4.60077,2470.544,2022-2-27T13:51:53Z
2022-02-27T11:53:22Z,42.805,6.029,13.3013,4.60067,2470.507,2022-2-27T13:54:56Z
2022-02-27T11:56:25Z,42.805,6.029,13.3016,4.60076,2470.507,2022-2-27T13:57:59Z
2022-02-27T11:59:28Z,42.805,6.029,13.3015,4.60070,2470.507,2022-2-27T14:01:02Z
2022-02-27T12:02:31Z,42.805,6.029,13.3009,4.60073,2470.567,2022-2-27T14:04:05Z
2022-02-27T12:05:34Z,42.805,6.029,13.3012,4.60099,2470.53,2022-2-27T14:07:09Z
2022-02-27T12:08:37Z,42.805,6.029,13.3010,4.60103,2470.497,2022-2-27T14:10:12Z
2022-02-27T12:11:40Z,42.805,6.029,13.3017,4.60094,2470.507,2022-2-27T14:13:15Z
2022-02-27T12:14:43Z,42.805,6.029,13.3014,4.60077,2470.507,2022-2-27T14:16:18Z
2022-02-27T12:17:47Z,42.805,6.029,13.3015,4.60075,2470.52,2022-2-27T14:19:21Z
2022-02-27T12:20:50Z,42.805,6.029,13.3026,4.60110,2470.52,2022-2-27T14:22:24Z
2022-02-27T12:23:53Z,42.805,6.029,13.3019,4.60105,2470.52,2022-2-27T14:25:27Z
2022-02-27T12:26:56Z,42.805,6.029,13.3019,4.60094,2470.507,2022-2-27T14:28:30Z
2022-02-27T12:29:59Z,42.805,6.029,13.3021,4.60092,2470.53,2022-2-27T14:31:34Z
2022-02-27T12:33:02Z,42.805,6.029,13.3003,4.60056,2470.52,2022-2-27T14:34:37Z
2022-02-27T12:36:05Z,42.805,6.029,13.3008,4.60077,2470.544,2022-2-27T14:37:40Z
2022-02-27T12:39:08Z,42.805,6.029,13.3017,4.60084,2470.507,2022-2-27T14:40:43Z
2022-02-27T12:42:12Z,42.805,6.029,13.3006,4.60069,2470.507,2022-2-27T14:43:46Z
2022-02-27T12:45:15Z,42.805,6.029,13.3010,4.60057,2470.507,2022-2-27T14:46:49Z
2022-02-27T12:48:18Z,42.805,6.029,13.3013,4.60089,2470.544,2022-2-27T14:49:52Z
2022-02-27T12:51:21Z,42.805,6.029,13.3019,4.60097,2470.507,2022-2-27T14:52:56Z
2022-02-27T12:54:24Z,42.805,6.029,13.3019,4.60104,2470.544,2022-2-27T14:55:59Z
2022-02-27T12:57:27Z,42.805,6.029,13.3019,4.60074,2470.53,2022-2-27T14:59:02Z
2022-02-27T13:00:30Z,42.805,6.029,13.3003,4.60057,2470.52,2022-2-27T15:02:05Z
2022-02-27T13:03:33Z,42.805,6.029,13.3008,4.60067,2470.507,2022-2-27T15:05:08Z
2022-02-27T13:06:37Z,42.805,6.029,13.3004,4.60055,2470.507,2022-2-27T15:08:11Z
2022-02-27T13:09:40Z,42.805,6.029,13.3014,4.60084,2470.507,2022-2-27T15:11:14Z
2022-02-27T13:12:43Z,42.805,6.029,13.3009,4.60101,2470.544,2022-2-27T15:14:17Z
2022-02-27T13:15:46Z,42.805,6.029,13.3024,4.60117,2470.52,2022-2-27T15:17:20Z
2022-02-27T13:18:49Z,42.805,6.029,13.3020,4.60095,2470.53,2022-2-27T15:20:24Z
2022-02-27T13:21:52Z,42.805,6.029,13.3015,4.60077,2470.483,2022-2-27T15:23:27Z
2022-02-27T13:24:55Z,42.805,6.029,13.3011,4.60077,2470.544,2022-2-27T15:26:30Z
2022-02-27T13:27:58Z,42.805,6.029,13.3014,4.60122,2470.53,2022-2-27T15:29:33Z
2022-02-27T13:31:02Z,42.805,6.029,13.3021,4.60067,2470.507,2022-2-27T15:32:36Z
2022-02-27T13:34:05Z,42.805,6.029,13.3015,4.60104,2470.507,2022-2-27T15:35:39Z
2022-02-27T13:37:08Z,42.805,6.029,13.3007,4.60070,2470.567,2022-2-27T15:38:42Z
2022-02-27T13:40:11Z,42.805,6.029,13.3000,4.60072,2470.53,2022-2-27T15:41:46Z
2022-02-27T13:43:14Z,42.805,6.029,13.3013,4.60120,2470.544,2022-2-27T15:44:49Z
2022-02-27T13:46:17Z,42.805,6.029,13.3019,4.60074,2470.53,2022-2-27T15:47:52Z
2022-02-27T13:49:20Z,42.805,6.029,13.3008,4.60103,2470.544,2022-2-27T15:50:55Z
2022-02-27T13:52:23Z,42.805,6.029,13.3007,4.60078,2470.53,2022-2-27T15:53:58Z
2022-02-27T13:55:27Z,42.805,6.029,13.3041,4.60091,2470.507,2022-2-27T15:57:01Z
2022-02-27T13:58:30Z,42.805,6.029,13.3013,4.60062,2470.53,2022-2-27T16:00:04Z
2022-02-27T14:01:33Z,42.805,6.029,13.3017,4.60114,2470.53,2022-2-27T16:03:07Z
2022-02-27T14:04:36Z,42.805,6.029,13.3019,4.60125,2470.544,2022-2-27T16:06:11Z
2022-02-27T14:07:39Z,42.805,6.029,13.3017,4.60107,2470.544,2022-2-27T16:09:14Z
2022-02-27T14:10:42Z,42.805,6.029,13.3011,4.60076,2470.567,2022-2-27T16:12:17Z
2022-02-27T14:13:45Z,42.805,6.029,13.3013,4.60061,2470.53,2022-2-27T16:15:20Z
2022-02-27T14:16:48Z,42.805,6.029,13.3013,4.60059,2470.53,2022-2-27T16:18:23Z
2022-02-27T14:19:52Z,42.805,6.029,13.3004,4.60094,2470.553,2022-2-27T16:21:26Z
2022-02-27T14:22:55Z,42.805,6.029,13.3009,4.60097,2470.53,2022-2-27T16:24:29Z
2022-02-27T14:25:58Z,42.805,6.029,13.3015,4.60096,2470.567,2022-2-27T16:27:32Z
2022-02-27T14:29:01Z,42.805,6.029,13.3021,4.60118,2470.52,2022-2-27T16:30:36Z
2022-02-27T14:32:04Z,42.805,6.029,13.3020,4.60102,2470.53,2022-2-27T16:33:39Z
2022-02-27T14:35:07Z,42.805,6.029,13.3013,4.60112,2470.53,2022-2-27T16:36:42Z
2022-02-27T14:38:10Z,42.805,6.029,13.3017,4.60106,2470.591,2022-2-27T16:39:45Z
2022-02-27T14:41:14Z,42.805,6.029,13.3024,4.60129,2470.53,2022-2-27T16:42:48Z
2022-02-27T14:44:17Z,42.805,6.029,13.3021,4.60115,2470.53,2022-2-27T16:45:51Z
2022-02-27T14:47:20Z,42.805,6.029,13.3005,4.60087,2470.52,2022-2-27T16:48:54Z
2022-02-27T14:50:23Z,42.805,6.029,13.3015,4.60105,2470.553,2022-2-27T16:51:57Z
2022-02-27T14:53:26Z,42.805,6.029,13.3036,4.60070,2470.553,2022-2-27T16:55:01Z
2022-02-27T14:56:29Z,42.805,6.029,13.3022,4.60090,2470.577,2022-2-27T16:58:04Z
2022-02-27T14:59:32Z,42.805,6.029,13.3024,4.60095,2470.577,2022-2-27T17:01:07Z
2022-02-27T15:02:35Z,42.805,6.029,13.3022,4.60102,2470.567,2022-2-27T17:04:10Z
2022-02-27T15:05:38Z,42.805,6.029,13.3024,4.60111,2470.53,2022-2-27T17:07:13Z
2022-02-27T15:08:42Z,42.805,6.029,13.3031,4.60122,2470.567,2022-2-27T17:10:16Z
2022-02-27T15:11:45Z,42.805,6.029,13.3039,4.60094,2470.544,2022-2-27T17:13:19Z
2022-02-27T15:14:48Z,42.805,6.029,13.3029,4.60132,2470.553,2022-2-27T17:16:22Z